• Em Portugal
  • Lista de países
  • Para 7 dias
  • Temperatura da água
  • Mapas de satélite
  • Mapa do tempo
  • Widgets de tempo
  • user-avatar
    Iniciar Sessão

    Previsão horária em Mingachevir

    Hoje, 17 Agosto, Sexta-feira

    Tempo Temperatura Precipitação Vento Pressão Humidade
    00:00 +27°C° 0 mm 2 m/s 751 mmHg 52%
    01:00 +27°C° 0 mm 2 m/s 751 mmHg 54%
    02:00 +26°C° 0 mm 2 m/s 751 mmHg 55%
    03:00 +26°C° 0 mm 1 m/s 750 mmHg 56%
    04:00 +26°C° 0 mm 1 m/s 750 mmHg 56%
    05:00 +26°C° 0 mm 1 m/s 750 mmHg 56%
    06:00 +24°C° 0 mm 0 m/s 750 mmHg 55%
    07:00 +28°C° 0 mm 1 m/s 750 mmHg 50%
    08:00 +30°C° 0 mm 1 m/s 750 mmHg 45%
    09:00 +31°C° 0 mm 2 m/s 750 mmHg 40%
    10:00 +34°C° 0 mm 2 m/s 749 mmHg 38%
    11:00 +35°C° 0 mm 2 m/s 749 mmHg 35%
    12:00 +36°C° 0 mm 2 m/s 748 mmHg 33%
    13:00 +37°C° 0 mm 2 m/s 748 mmHg 31%
    14:00 +38°C° 0 mm 2 m/s 748 mmHg 30%
    15:00 +38°C° 0 mm 3 m/s 747 mmHg 28%
    16:00 +38°C° 0 mm 3 m/s 747 mmHg 29%
    17:00 +37°C° 0 mm 2 m/s 747 mmHg 30%
    18:00 +37°C° 0 mm 2 m/s 747 mmHg 31%
    19:00 +35°C° 0 mm 3 m/s 747 mmHg 35%
    20:00 +34°C° 0 mm 3 m/s 748 mmHg 38%
    21:00 +31°C° 0 mm 3 m/s 748 mmHg 42%
    22:00 +30°C° 0 mm 3 m/s 748 mmHg 44%
    23:00 +29°C° 0 mm 2 m/s 748 mmHg 46%

    Amanhã, 18 Agosto, Sábado

    Tempo Temperatura Precipitação Vento Pressão Humidade
    00:00 +29°C° 0 mm 2 m/s 748 mmHg 49%
    01:00 +28°C° 0 mm 2 m/s 748 mmHg 50%
    02:00 +28°C° 0 mm 1 m/s 747 mmHg 51%
    03:00 +27°C° 0 mm 1 m/s 747 mmHg 53%
    04:00 +27°C° 0 mm 1 m/s 747 mmHg 52%
    05:00 +27°C° 0 mm 1 m/s 747 mmHg 52%
    06:00 +28°C° 0 mm 1 m/s 747 mmHg 52%
    07:00 +29°C° 0 mm 1 m/s 747 mmHg 48%
    08:00 +31°C° 0 mm 1 m/s 747 mmHg 43%
    09:00 +34°C° 0 mm 2 m/s 747 mmHg 38%
    10:00 +35°C° 0 mm 2 m/s 746 mmHg 35%
    11:00 +36°C° 0 mm 2 m/s 746 mmHg 32%
    12:00 +38°C° 0 mm 2 m/s 746 mmHg 29%
    13:00 +38°C° 0,1 mm 3 m/s 745 mmHg 28%
    14:00 +39°C° 0,1 mm 3 m/s 745 mmHg 26%
    15:00 +41°C° 0,1 mm 4 m/s 745 mmHg 25%
    16:00 +40°C° 0,1 mm 4 m/s 745 mmHg 26%
    17:00 +38°C° 0,1 mm 4 m/s 745 mmHg 27%
    18:00 +37°C° 0,1 mm 4 m/s 745 mmHg 29%
    19:00 +36°C° 0 mm 4 m/s 745 mmHg 33%
    20:00 +34°C° 0 mm 4 m/s 746 mmHg 38%
    21:00 +32°C° 0 mm 5 m/s 746 mmHg 42%
    22:00 +30°C° 0 mm 4 m/s 746 mmHg 44%
    23:00 +30°C° 0 mm 3 m/s 747 mmHg 46%

    Depois de amanhã, 19 Agosto, Domingo

    Tempo Temperatura Precipitação Vento Pressão Humidade
    00:00 +29°C° 0 mm 3 m/s 747 mmHg 48%
    01:00 +29°C° 0,3 mm 2 m/s 747 mmHg 49%
    02:00 +28°C° 0,3 mm 2 m/s 747 mmHg 51%
    03:00 +27°C° 0,3 mm 1 m/s 747 mmHg 53%
    04:00 +27°C° 0,3 mm 1 m/s 747 mmHg 52%
    05:00 +28°C° 0,3 mm 1 m/s 747 mmHg 52%
    06:00 +28°C° 0,3 mm 1 m/s 747 mmHg 51%
    07:00 +29°C° 0,2 mm 2 m/s 747 mmHg 48%
    08:00 +31°C° 0,2 mm 3 m/s 747 mmHg 44%
    09:00 +33°C° 0,2 mm 3 m/s 747 mmHg 40%
    10:00 +34°C° 0 mm 3 m/s 747 mmHg 37%
    11:00 +35°C° 0 mm 3 m/s 747 mmHg 34%
    12:00 +37°C° 0 mm 2 m/s 747 mmHg 30%
    13:00 +37°C° 0,1 mm 3 m/s 747 mmHg 29%
    14:00 +38°C° 0,1 mm 3 m/s 746 mmHg 27%
    15:00 +38°C° 0,1 mm 3 m/s 746 mmHg 26%
    16:00 +37°C° 0,1 mm 3 m/s 747 mmHg 28%
    17:00 +36°C° 0,1 mm 4 m/s 747 mmHg 30%
    18:00 +35°C° 0,1 mm 4 m/s 747 mmHg 33%
    19:00 +33°C° 0,2 mm 5 m/s 748 mmHg 35%
    20:00 +32°C° 0,2 mm 5 m/s 748 mmHg 38%
    21:00 +29°C° 0,2 mm 6 m/s 749 mmHg 41%
    22:00 +28°C° 0,1 mm 6 m/s 749 mmHg 43%
    23:00 +28°C° 0,1 mm 6 m/s 749 mmHg 45%

    20 Agosto, Segunda-feira

    Tempo Temperatura Precipitação Vento Pressão Humidade
    00:00 +27°C° 0,1 mm 5 m/s 750 mmHg 47%
    01:00 +26°C° 0 mm 5 m/s 750 mmHg 49%
    02:00 +26°C° 0 mm 4 m/s 750 mmHg 52%
    03:00 +25°C° 0 mm 4 m/s 750 mmHg 54%
    04:00 +25°C° 0 mm 4 m/s 750 mmHg 56%
    05:00 +25°C° 0 mm 4 m/s 751 mmHg 58%
    06:00 +25°C° 0 mm 4 m/s 751 mmHg 60%
    07:00 +26°C° 0 mm 5 m/s 751 mmHg 55%
    08:00 +27°C° 0 mm 6 m/s 751 mmHg 51%
    09:00 +29°C° 0 mm 6 m/s 752 mmHg 46%
    10:00 +30°C° 0 mm 6 m/s 751 mmHg 43%
    11:00 +32°C° 0 mm 6 m/s 751 mmHg 39%
    12:00 +33°C° 0 mm 6 m/s 751 mmHg 36%
    13:00 +33°C° 0 mm 6 m/s 751 mmHg 34%
    14:00 +34°C° 0 mm 6 m/s 751 mmHg 32%
    15:00 +34°C° 0 mm 6 m/s 750 mmHg 31%
    16:00 +33°C° 0 mm 6 m/s 751 mmHg 32%
    17:00 +32°C° 0 mm 6 m/s 751 mmHg 34%
    18:00 +32°C° 0 mm 6 m/s 751 mmHg 35%
    19:00 +29°C° 0 mm 6 m/s 752 mmHg 40%
    20:00 +28°C° 0 mm 5 m/s 752 mmHg 45%
    21:00 +26°C° 0 mm 4 m/s 753 mmHg 51%
    22:00 +25°C° 0 mm 4 m/s 753 mmHg 54%
    23:00 +25°C° 0 mm 3 m/s 753 mmHg 57%

    21 Agosto, Terça-feira

    Tempo Temperatura Precipitação Vento Pressão Humidade
    00:00 +24°C° 0 mm 3 m/s 753 mmHg 61%
    01:00 +24°C° 0 mm 2 m/s 753 mmHg 62%
    02:00 +23°C° 0 mm 2 m/s 753 mmHg 64%
    03:00 +23°C° 0 mm 1 m/s 752 mmHg 66%
    04:00 +23°C° 0 mm 1 m/s 753 mmHg 65%
    05:00 +23°C° 0 mm 1 m/s 753 mmHg 64%
    06:00 +23°C° 0 mm 1 m/s 753 mmHg 64%
    07:00 +25°C° 0 mm 1 m/s 753 mmHg 57%
    08:00 +27°C° 0 mm 2 m/s 753 mmHg 51%
    09:00 +28°C° 0 mm 2 m/s 753 mmHg 45%
    10:00 +30°C° 0 mm 2 m/s 752 mmHg 41%
    11:00 +31°C° 0 mm 3 m/s 752 mmHg 38%
    12:00 +33°C° 0 mm 3 m/s 751 mmHg 34%
    13:00 +34°C° 0 mm 3 m/s 751 mmHg 33%
    14:00 +35°C° 0 mm 3 m/s 751 mmHg 31%
    15:00 +35°C° 0 mm 4 m/s 750 mmHg 29%
    16:00 +35°C° 0 mm 4 m/s 751 mmHg 30%
    17:00 +34°C° 0 mm 4 m/s 751 mmHg 30%
    18:00 +34°C° 0 mm 4 m/s 751 mmHg 31%
    19:00 +32°C° 0 mm 4 m/s 752 mmHg 34%
    20:00 +30°C° 0 mm 4 m/s 752 mmHg 38%
    21:00 +28°C° 0 mm 4 m/s 753 mmHg 41%
    22:00 +27°C° 0 mm 3 m/s 753 mmHg 44%
    23:00 +27°C° 0 mm 3 m/s 753 mmHg 46%

    22 Agosto, Quarta-feira

    Tempo Temperatura Precipitação Vento Pressão Humidade
    00:00 +26°C° 0 mm 2 m/s 753 mmHg 49%
    01:00 +25°C° 0 mm 2 m/s 753 mmHg 50%
    02:00 +25°C° 0 mm 1 m/s 752 mmHg 52%
    03:00 +24°C° 0 mm 1 m/s 752 mmHg 54%
    04:00 +25°C° 0 mm 1 m/s 753 mmHg 54%
    05:00 +25°C° 0 mm 1 m/s 753 mmHg 54%
    06:00 +25°C° 0 mm 1 m/s 753 mmHg 54%
    07:00 +27°C° 0 mm 1 m/s 753 mmHg 48%
    08:00 +29°C° 0 mm 1 m/s 753 mmHg 42%
    09:00 +30°C° 0 mm 1 m/s 753 mmHg 36%
    10:00 +32°C° 0 mm 2 m/s 752 mmHg 32%
    11:00 +34°C° 0 mm 3 m/s 752 mmHg 29%
    12:00 +35°C° 0 mm 3 m/s 751 mmHg 25%
    13:00 +36°C° 0 mm 4 m/s 751 mmHg 24%
    14:00 +37°C° 0 mm 4 m/s 751 mmHg 23%
    15:00 +39°C° 0 mm 5 m/s 751 mmHg 22%
    16:00 +37°C° 0 mm 5 m/s 751 mmHg 25%
    17:00 +36°C° 0 mm 5 m/s 751 mmHg 27%
    18:00 +35°C° 0 mm 6 m/s 751 mmHg 29%
    19:00 +33°C° 0 mm 5 m/s 752 mmHg 32%
    20:00 +32°C° 0 mm 5 m/s 753 mmHg 34%
    21:00 +29°C° 0 mm 5 m/s 753 mmHg 37%
    22:00 +28°C° 0 mm 4 m/s 753 mmHg 39%
    23:00 +27°C° 0 mm 3 m/s 753 mmHg 41%
    Mostrar mais